HG5OJG-6 Weather Reports


Display with metric or nautical units.
time (UTC)temp
F
wind
direction
speed
MPH
gust
MPH
rain 1hr
in
rain 24hr
in
rain mn
in
humidity
%
barometer
mb
20260506023515 56 199 3.0 7.0 0.00 0.00 0.00 69 1009.7
20260506022614 56 207 3.0 4.0 0.00 0.00 0.00 68 1009.6
20260506021619 57 197 3.0 4.0 0.00 0.00 0.00 67 1009.8
20260506020518 57 187 3.0 6.0 0.00 0.00 0.00 66 1009.8
20260506015637 58 208 3.0 8.0 0.00 0.00 0.00 66 1009.7
20260506014536 58 227 3.0 7.0 0.00 0.00 0.00 65 1009.7
20260506013540 58 206 5.0 10.0 0.00 0.00 0.00 64 1009.8
20260506012604 59 199 4.0 8.0 0.00 0.00 0.00 63 1009.8
20260506011529 59 190 4.0 7.0 0.00 0.00 0.00 63 1009.9
20260506010603 59 192 4.0 9.0 0.00 0.00 0.00 63 1009.9
20260506005547 59 197 2.0 8.0 0.00 0.00 0.00 62 1009.9
20260506004551 60 202 4.0 10.0 0.00 0.00 0.00 62 1009.9
20260506003535 60 206 5.0 8.0 0.00 0.00 0.00 62 1010.0
20260506002559 60 200 4.0 9.0 0.00 0.00 0.00 61 1009.9
20260506001554 60 200 3.0 7.0 0.00 0.00 0.00 61 1009.8
20260506000557 60 211 3.0 9.0 0.00 0.00 0.00 60 1010.0
20260505235541 60 215 5.0 9.0 0.00 0.00 0.00 60 1010.2
20260505234605 60 217 6.0 13.0 0.00 0.00 0.00 60 1010.2
20260505233608 60 215 5.0 9.0 0.00 0.00 0.00 59 1010.2
20260505232602 60 211 4.0 8.0 0.00 0.00 0.00 59 1010.1
20260505231536 61 210 4.0 8.0 0.00 0.00 0.00 58 1010.3
20260505230621 61 219 3.0 8.0 0.00 0.00 0.00 57 1010.4
20260505225604 61 221 3.0 9.0 0.00 0.00 0.00 57 1010.3
20260505224608 61 220 3.0 8.0 0.00 0.00 0.00 56 1010.2
20260505223552 62 217 4.0 8.0 0.00 0.00 0.00 56 1010.3
20260505222607 62 218 7.0 14.0 0.00 0.00 0.00 56 1010.3
20260505221711 62 228 5.0 9.0 0.00 0.00 0.00 55 1010.2
20260505220555 62 230 6.0 11.0 0.00 0.00 0.00 55 1010.3
20260505215639 63 221 7.0 13.0 0.00 0.00 0.00 55 1010.3
20260505214603 63 225 6.0 13.0 0.00 0.00 0.00 54 1010.3
20260505213557 63 229 6.0 14.0 0.00 0.00 0.00 53 1010.2
20260505212642 64 213 7.0 15.0 0.00 0.00 0.00 53 1010.3
20260505211606 64 233 6.0 19.0 0.00 0.00 0.00 53 1010.3
20260505210711 64 240 5.0 14.0 0.00 0.00 0.00 53 1010.4
20260505205615 63 231 7.0 15.0 0.00 0.00 0.00 54 1010.4
20260505204608 64 236 6.0 10.0 0.00 0.00 0.00 53 1010.5
20260505203610 64 228 5.0 13.0 0.00 0.00 0.00 53 1010.5
20260505202635 64 229 6.0 9.0 0.00 0.00 0.00 52 1010.4
20260505200633 65 233 7.0 15.0 0.00 0.00 0.00 50 1010.3
20260505195638 65 262 7.0 13.0 0.00 0.00 0.00 49 1010.3
20260505194611 66 236 6.0 14.0 0.00 0.00 0.00 48 1010.2
20260505193655 66 257 6.0 10.0 0.00 0.00 0.00 47 1010.2
20260505192621 67 247 9.0 15.0 0.00 0.00 0.00 46 1010.1
20260505191518 67 259 7.0 13.0 0.00 0.00 0.00 45 1010.1
20260505190543 68 271 8.0 14.0 0.00 0.00 0.00 44 1010.1
20260505185537 68 253 5.0 10.0 0.00 0.00 0.00 43 1009.9
20260505184541 68 254 6.0 14.0 0.00 0.00 0.00 42 1009.7
20260505183525 69 251 5.0 10.0 0.00 0.00 0.00 41 1009.6
20260505182527 69 237 5.0 9.0 0.00 0.00 0.00 40 1009.5
20260505181553 70 237 4.0 9.0 0.00 0.00 0.00 39 1009.4
20260505180546 70 255 3.0 6.0 0.00 0.00 0.00 38 1009.4
20260505175520 71 256 4.0 9.0 0.00 0.00 0.00 38 1009.5
20260505174524 72 252 5.0 8.0 0.00 0.00 0.00 37 1009.5
20260505173527 72 253 4.0 11.0 0.00 0.00 0.00 36 1009.4
20260505172531 73 271 4.0 10.0 0.00 0.00 0.00 35 1009.5
20260505171535 74 259 7.0 15.0 0.00 0.00 0.00 35 1009.2
20260505170609 75 251 7.0 18.0 0.00 0.00 0.00 34 1009.4
20260505165533 76 245 9.0 21.0 0.00 0.00 0.00 33 1009.3
20260505164617 77 262 9.0 19.0 0.00 0.00 0.00 31 1009.3
20260505163601 77 246 7.0 15.0 0.00 0.00 0.00 31 1009.2
20260505162545 78 254 10.0 21.0 0.00 0.00 0.00 30 1009.2
20260505161540 79 224 10.0 18.0 0.00 0.00 0.00 29 1009.2
20260505160604 79 237 8.0 18.0 0.00 0.00 0.00 28 1009.3
20260505152548 80 184 8.0 16.0 0.00 0.00 0.00 28 1009.4
20260505151543 80 174 3.0 9.0 0.00 0.00 0.00 28 1009.6
20260505150627 80 218 5.0 11.0 0.00 0.00 0.00 28 1009.6
20260505140619 79 199 11.0 23.0 0.00 0.00 0.00 23 1010.4
20260505124611 84 210 10.0 17.0 0.00 0.00 0.00 25 1010.8
20260505123624 84 196 8.0 21.0 0.00 0.00 0.00 26 1011.0
20260505122650 84 168 10.0 27.0 0.00 0.00 0.00 25 1011.1
20260505121633 84 223 7.0 17.0 0.00 0.00 0.00 25 1011.2
20260505120617 85 229 9.0 18.0 0.00 0.00 0.00 24 1011.1
20260505115517 85 213 11.0 21.0 0.00 0.00 0.00 25 1011.3
20260505114615 84 210 9.0 23.0 0.00 0.00 0.00 25 1011.4
20260505113617 84 168 9.0 17.0 0.00 0.00 0.00 26 1011.4
20260505112558 84 165 5.0 15.0 0.00 0.00 0.00 27 1011.4
20260505111617 84 190 5.0 15.0 0.00 0.00 0.00 28 1011.6
20260505110536 84 201 7.0 16.0 0.00 0.00 0.00 27 1011.7
20260505101546 82 199 10.0 19.0 0.00 0.00 0.00 27 1012.3
20260505100550 82 187 7.0 19.0 0.00 0.00 0.00 28 1012.5
20260505095525 81 192 7.0 14.0 0.00 0.00 0.00 30 1012.4
20260505094549 81 185 7.0 19.0 0.00 0.00 0.00 30 1012.4
20260505093554 81 201 9.0 17.0 0.00 0.00 0.00 29 1012.4
20260505092557 81 197 8.0 18.0 0.00 0.00 0.00 30 1012.7
20260505091541 80 166 9.0 21.0 0.00 0.00 0.00 31 1012.6
20260505090554 80 157 8.0 18.0 0.00 0.00 0.00 31 1012.7
20260505085539 78 212 6.0 17.0 0.00 0.00 0.00 32 1012.7
20260505084724 78 184 7.0 19.0 0.00 0.00 0.00 34 1012.7
20260505083545 78 211 8.0 16.0 0.00 0.00 0.00 34 1012.8
20260505082549 76 184 5.0 17.0 0.00 0.00 0.00 39 1013.0
20260505080559 74 215 5.0 9.0 0.00 0.00 0.00 40 1013.1
20260505075542 72 196 4.0 9.0 0.00 0.00 0.00 42 1013.1
20260505074606 71 211 6.0 14.0 0.00 0.00 0.00 42 1013.2
20260505073611 71 218 7.0 16.0 0.00 0.00 0.00 42 1013.3
20260505072555 71 215 7.0 13.0 0.00 0.00 0.00 42 1013.3
20260505071549 70 221 5.0 11.0 0.00 0.00 0.00 43 1013.3
20260505070553 70 200 4.0 10.0 0.00 0.00 0.00 43 1013.4
20260505065618 69 176 5.0 9.0 0.00 0.00 0.00 44 1013.5
20260505064601 68 183 3.0 8.0 0.00 0.00 0.00 44 1013.5
20260505063605 68 191 3.0 9.0 0.00 0.00 0.00 44 1013.6
20260505062619 67 193 3.0 7.0 0.00 0.00 0.00 45 1013.5
20260505061626 66 207 2.0 6.0 0.00 0.00 0.00 46 1013.4
20260505060648 64 171 3.0 6.0 0.00 0.00 0.00 47 1013.6
20260505055632 63 183 2.0 4.0 0.00 0.00 0.00 48 1013.5
20260505054737 63 139 2.0 4.0 0.00 0.00 0.00 48 1013.5
20260505053651 62 159 3.0 4.0 0.00 0.00 0.00 48 1013.5
20260505052632 61 143 2.0 4.0 0.00 0.00 0.00 51 1013.5
20260505051616 59 142 1.0 3.0 0.00 0.00 0.00 56 1013.6
20260505050611 55 113 1.0 2.0 0.00 0.00 0.00 62 1013.4
20260505041536 49 102 1.0 2.0 0.00 0.00 0.00 66 1013.4
20260505040602 48 114 0.0 2.0 0.00 0.00 0.00 66 1013.3
20260505035545 48 128 1.0 2.0 0.00 0.00 0.00 65 1013.3
20260505034539 48 134 1.0 2.0 0.00 0.00 0.00 65 1013.3
20260505033603 48 138 1.0 2.0 0.00 0.00 0.00 65 1013.2
20260505032547 48 127 1.0 1.0 0.00 0.00 0.00 64 1013.3
20260505031551 48 126 0.0 1.0 0.00 0.00 0.00 64 1013.4
20260505030536 48 126 0.0 2.0 0.00 0.00 0.00 64 1013.4
20260505025609 49 126 0.0 1.0 0.00 0.00 0.00 64 1013.5
20260505024615 49 126 0.0 1.0 0.00 0.00 0.00 63 1013.5